Location: Rounton
(54.4000°N, 1.3500°W)
Time: 14:48:06
(UTC+00:00)

Transit 2A Rocket - Pass Details

Date: 09 December 2021
Orbit: 584 x 918 km, 66.7° (Epoch: 21 January)

Event Time Altitude Azimuth Distance (km) Brightness Sun altitude
Rises 14:50:14 0° 317° (NW) 3,568 8.4 4.3°
Reaches altitude 10° 14:52:50 10° 315° (NW) 2,616 7.7 4.1°
Maximum altitude 14:58:51 62° 236° (WSW) 1,003 6.2 3.5°
Drops below altitude 10° 15:04:34 10° 157° (SSE) 2,478 8.0 3.0°
Sets 15:06:58 0° 154° (SSE) 3,366 8.6 2.7°
